Lid_Strength_Index
2 2 1 1 2 2 2 2 3 3 3 3 4 4 5 5 5 4 4 4 4 4 4 4 3 3 4 6 6 3 0 1 2 4 6 6 7 7 9 8 7 8 7 6 6 6 6
2 2 2 2 2 2 2 2 3 3 3 3 4 4 5 5 5 5 5 5 5 5 4 3 3 3 5 9 4 3 4 4 4 5 5 5 6 5 7 7 7 6 7 7 6 6 6
2 2 2 2 2 2 2 2 3 3 3 3 4 4 4 5 5 5 4 5 5 5 4 3 3 4 7 7 4 3 4 4 3 4 5 4 4 5 5 7 5 5 7 6 6 6 7
2 2 2 2 2 2 2 2 3 3 3 3 4 4 4 5 5 5 5 5 5 5 3 3 3 5 9 4 3 5 4 4 3 2 3 3 3 4 5 4 6 7 7 9 6 6 5
2 2 2 2 2 2 2 2 3 3 3 3 4 4 4 5 5 5 4 5 5 4 3 3 4 5 8 3 5 4 4 5 4 4 4 3 3 5 5 8 9 8 11 9 8 6 6
2 2 2 2 2 2 3 2 3 3 3 4 4 5 5 5 5 4 5 5 4 4 3 3 4 7 6 7 5 5 3 4 5 4 4 4 5 7 7 8 12 10 10 9 9 7 7
2 2 2 2 2 2 2 2 3 3 3 3 4 4 5 5 5 5 5 4 7 6 5 8 8 7 7 5 4 5 4 4 4 5 7 5 8 9 8 7 7 8 9 10 8 7 7
2 2 2 1 1 2 2 3 3 3 3 4 4 5 5 5 4 5 5 6 7 7 10 7 7 6 5 5 7 5 3 6 6 8 6 7 9 7 6 6 7 8 9 10 8 7 7
1 1 2 2 3 2 3 3 3 3 3 4 5 5 5 5 5 5 4 5 4 5 10 8 7 7 6 5 7 6 4 5 6 7 7 9 8 6 7 7 9 9 10 9 10 8 7
1 1 1 2 3 2 2 3 3 3 3 4 5 5 5 5 5 4 5 5 4 5 11 9 8 7 6 5 7 4 3 5 6 7 7 8 6 7 7 8 8 10 7 9 10 11 14
1 1 1 2 2 2 2 3 3 3 4 4 5 5 5 5 4 4 6 5 5 5 16 9 8 5 6 7 6 5 2 4 7 7 7 9 8 8 9 8 7 9 7 9 10 14 14
1 1 2 2 2 2 2 3 3 4 4 5 5 5 5 4 3 5 5 4 4 10 14 9 7 7 8 6 6 4 4 3 4 7 7 7 5 6 7 6 6 6 8 9 10 11 15
1 1 2 2 2 2 2 3 3 4 4 5 5 6 6 4 7 5 4 5 10 12 8 10 10 9 9 8 6 6 7 7 9 13 12 9 8 6 6 8 7 7 10 17 17 17 18
1 1 2 2 2 2 3 3 4 4 5 5 6 7 3 3 4 4 5 8 13 10 11 9 10 9 9 7 7 7 7 9 7 8 11 14 15 8 6 8 9 9 11 17 20 17 15
1 2 2 2 2 2 3 3 4 5 6 6 7 2 2 4 4 3 6 11 12 12 11 11 10 11 10 8 8 8 9 9 8 7 12 13 13 7 7 6 7 9 12 8 12 12 16
1 2 2 2 2 3 3 4 5 5 6 7 6 4 3 4 3 4 8 12 11 9 9 9 12 10 12 10 9 9 10 7 9 7 7 10 16 9 7 6 6 8 7 13 13 19 20
2 2 2 3 3 3 3 4 5 5 6 7 5 5 3 2 3 7 10 11 9 8 7 9 10 10 10 10 10 11 11 9 8 8 7 9 12 12 9 10 11 10 11 10 11 14 18
2 3 2 2 3 3 3 4 5 5 6 5 5 7 2 3 8 8 10 9 9 8 6 7 8 9 10 10 11 11 12 10 8 8 11 9 12 15 12 8 7 8 10 10 17 18 16
3 3 3 3 3 3 3 4 5 5 5 6 5 5 2 3 11 11 9 8 7 8 7 7 8 8 8 11 14 10 10 8 8 9 10 10 13 17 14 10 10 13 11 11 11 13 17
3 3 3 2 2 2 3 3 4 4 5 5 5 8 5 5 6 9 10 9 9 6 7 6 7 7 9 11 10 11 11 9 8 9 7 9 14 15 18 14 11 13 12 10 13 17 15
3 3 3 2 1 1 2 3 4 4 5 5 4 7 6 10 10 9 9 9 10 9 6 5 7 8 9 14 12 12 10 10 9 8 9 10 15 13 13 12 12 13 13 13 14 14 17
3 3 3 3 1 2 2 4 4 4 5 4 6 7 7 8 7 8 9 9 10 9 8 8 8 8 8 11 10 13 11 11 12 10 10 10 14 13 14 12 12 14 12 13 13 13 13
3 2 2 2 2 2 2 3 4 4 5 3 3 4 6 8 8 10 10 10 9 8 7 6 6 8 9 8 7 7 7 7 8 11 11 13 14 15 17 13 12 16 14 13 13 12 12
3 2 2 2 2 2 2 3 4 5 6 5 3 5 7 10 9 10 10 9 9 8 8 6 5 8 6 4 5 6 6 7 7 8 8 14 15 14 16 14 20 14 11 12 13 12 11
3 3 3 2 2 2 1 3 4 5 5 6 5 5 7 10 9 9 10 10 8 6 7 6 5 5 4 6 9 11 10 11 10 9 10 10 14 16 17 17 14 14 13 14 15 15 11
3 3 3 2 2 2 2 3 4 5 5 6 6 3 6 8 8 8 9 9 10 9 7 6 4 3 4 8 10 14 16 13 13 12 9 10 11 15 16 18 20 16 13 11 12 16 12
3 3 3 3 3 2 2 2 4 5 5 7 7 2 5 8 7 7 9 10 8 8 8 6 6 6 5 10 13 14 14 11 15 15 15 14 14 16 16 17 15 13 13 11 18 15 13
4 4 4 4 3 3 2 2 3 4 5 6 7 2 5 7 7 6 6 8 9 7 9 6 8 8 9 12 13 12 13 12 13 12 15 15 16 16 16 16 18 11 14 17 15 14 13
5 5 5 4 3 3 2 2 3 4 5 6 8 4 3 7 7 5 6 6 7 6 6 6 7 9 10 13 12 13 13 12 13 16 11 15 15 16 16 16 12 13 14 12 12 13 14